sat.trackr.live / text

‹ back to catalog

GOKTURK 2

NORAD 39030 · 2012-073A

PAYLOAD ACTIVE UNKNOWN

§ Identity

Operator
Country
TURK
Launch date
2012-12-18
Launch site
JSC
Launch vehicle
Mass (kg)
RCS (m²)
1.65

Purposes: earth_obs

External: N2YO · Heavens-Above · Gunter

§ Orbital elements

Epoch: 2026-09-20T03:39:03.642336Z

Period
97.59 min
Inclination
97.6788°
Eccentricity
0.0002046
Mean motion
14.75614717 rev/d
Perigee alt
641.8 km
Apogee alt
644.6 km
Semi-major
7,021.3 km
B*
-6.2465e-6
RAAN
95.8211°
Arg perigee
66.9587°
Mean anomaly
293.1839°
Rev number
73,851

§ Raw data

GOKTURK 21 39030U 12073A   26263.15212549 -.00000090  00000+0 -62465-5 0  99942 39030  97.6788  95.8211 0002046  66.9587 293.1839 14.75614717738513

JSON: /api/v1/satellites/39030 · /tle

For live sub-satellite position, see the globe view (requires WebGL).

§ Visibility from observer

Set your observer location to see the next 7 days of passes ≥ 10°. The values pass through the URL so the page stays shareable.

No JS? Fill the form by hand. The geolocation button needs JavaScript.